timestamp,surface_pressure_avg,surface_temp_avg,battery_voltage,lat,long
2019-11-30 00:09:01+00:00,331.0963,5.7,12.65,47.84626,-54.09684
2019-11-30 00:19:01+00:00,343.4913,5.7,12.65,47.84626,-54.09684
2019-11-30 00:29:01+00:00,342.2997,5.7,12.65,47.84626,-54.09684
2019-11-30 00:39:01+00:00,338.7297,5.69,12.65,47.84626,-54.09684
2019-11-30 00:49:01+00:00,349.2163,5.7,12.65,47.84626,-54.09684
2019-11-30 00:59:01+00:00,354.8612,5.7,12.65,47.84626,-54.09684
2019-11-30 01:09:01+00:00,346.6031,5.7,12.65,47.84626,-54.09684
2019-11-30 01:19:01+00:00,353.51800000000014,5.7,12.65,47.84626,-54.09684
2019-11-30 01:29:01+00:00,365.5679,5.7,12.65,47.84626,-54.09684
2019-11-30 01:39:01+00:00,357.1396,5.7,12.65,47.84626,-54.09684
2019-11-30 01:49:01+00:00,350.9564,5.7,12.65,47.84626,-54.09684
2019-11-30 01:59:01+00:00,357.5812,5.7,12.65,47.84626,-54.09684
2019-11-30 02:09:01+00:00,362.1745,5.7,12.65,47.84626,-54.09684
2019-11-30 02:19:01+00:00,356.2363,5.7,12.65,47.84626,-54.09684
2019-11-30 02:29:01+00:00,361.2996,5.49,12.65,47.84626,-54.09684
2019-11-30 02:39:01+00:00,365.7846,5.3,12.65,47.84626,-54.09684
2019-11-30 02:49:01+00:00,358.9846,5.3,12.65,47.84626,-54.09684
2019-11-30 02:59:01+00:00,357.05300000000005,5.5,12.65,47.84626,-54.09684
2019-11-30 03:09:01+00:00,355.9612,5.5,12.65,47.84626,-54.09684
2019-11-30 03:19:01+00:00,354.6964,5.4,12.65,47.84626,-54.09684
2019-11-30 03:29:01+00:00,353.8713,5.37,12.65,47.84626,-54.09684
2019-11-30 03:39:01+00:00,348.3345,5.3,12.65,47.84626,-54.09684
2019-11-30 03:49:01+00:00,343.9763,5.3,12.65,47.84626,-54.09684
2019-11-30 03:59:01+00:00,343.1712,5.3,12.65,47.84626,-54.09684
2019-11-30 04:09:01+00:00,341.0147,5.3,12.65,47.84626,-54.09684
2019-11-30 04:19:01+00:00,330.7813,5.3,12.65,47.84626,-54.09684
2019-11-30 04:29:01+00:00,324.1096,5.3,12.65,47.84626,-54.09684
2019-11-30 04:39:01+00:00,323.1863,5.3,12.65,47.84626,-54.09684
2019-11-30 04:49:01+00:00,317.778,5.28,12.65,47.84626,-54.09684
2019-11-30 04:59:01+00:00,302.3964,5.25,12.65,47.84626,-54.09684
2019-11-30 05:09:01+00:00,295.1063,5.26,12.65,47.84626,-54.09684
2019-11-30 05:19:01+00:00,292.8781,5.22,12.65,47.84626,-54.09684
2019-11-30 05:29:01+00:00,288.1898,5.2,12.65,47.84626,-54.09684
2019-11-30 05:39:01+00:00,276.0114,5.2,12.65,47.84626,-54.09684
2019-11-30 05:49:01+00:00,268.8281,5.24,12.65,47.84626,-54.09684
2019-11-30 05:59:01+00:00,265.7114,5.37,12.65,47.84626,-54.09684
2019-11-30 06:09:01+00:00,259.9214,5.39,12.65,47.84626,-54.09684
2019-11-30 06:19:01+00:00,248.4531,5.39,12.65,47.84626,-54.09684
2019-11-30 06:29:01+00:00,242.6414,5.37,12.65,47.84626,-54.09684
2019-11-30 06:39:01+00:00,240.1415,5.36,12.65,47.84626,-54.09684
2019-11-30 06:49:01+00:00,235.6781,5.3,12.65,47.84626,-54.09684
2019-11-30 06:59:01+00:00,230.1498,5.3,12.65,47.84626,-54.09684
2019-11-30 07:09:01+00:00,228.9248,5.3,12.65,47.84626,-54.09684
2019-11-30 07:19:01+00:00,232.0514,5.28,12.65,47.84626,-54.09684
2019-11-30 07:29:01+00:00,232.2264,5.2,12.65,47.84626,-54.09684
2019-11-30 07:39:01+00:00,231.9898,5.2,12.65,47.84626,-54.09684
2019-11-30 07:49:01+00:00,234.6448,5.2,12.65,47.84626,-54.09684
2019-11-30 07:59:01+00:00,242.7347,5.19,12.65,47.84626,-54.09684
2019-11-30 08:09:01+00:00,247.2931,5.1,12.65,47.84626,-54.09684
2019-11-30 08:19:01+00:00,248.7431,5.11,12.65,47.84626,-54.09684
2019-11-30 08:29:01+00:00,251.8281,5.23,12.65,47.84626,-54.09684
2019-11-30 08:39:01+00:00,256.5147,5.39,12.65,47.84626,-54.09684
2019-11-30 08:49:01+00:00,256.9648,5.2,12.65,47.84626,-54.09684
2019-11-30 08:59:01+00:00,258.343,5.2,12.65,47.84626,-54.09684
2019-11-30 09:09:01+00:00,264.8014,5.24,12.65,47.84626,-54.09684
2019-11-30 09:19:01+00:00,271.1497,5.2,12.65,47.84626,-54.09684
2019-11-30 09:29:01+00:00,270.8665,5.19,12.65,47.84626,-54.09684
2019-11-30 09:39:01+00:00,271.5264,5.2,12.65,47.84626,-54.09684
2019-11-30 09:49:01+00:00,277.9097,5.39,12.65,47.84626,-54.09684
2019-11-30 09:59:01+00:00,283.9597,5.49,12.65,47.84626,-54.09684
2019-11-30 10:09:01+00:00,282.918,5.49,12.65,47.84626,-54.09684
2019-11-30 10:19:01+00:00,283.3981,5.45,12.65,47.84626,-54.09684
2019-11-30 10:29:01+00:00,290.6846,5.44,12.65,47.84626,-54.09684
2019-11-30 10:39:01+00:00,296.158,5.48,12.65,47.84626,-54.09684
2019-11-30 10:49:01+00:00,297.103,5.5,12.65,47.84626,-54.09684
2019-11-30 10:59:01+00:00,304.2147,5.5,12.65,47.84626,-54.09684
2019-11-30 11:09:01+00:00,313.548,5.5,12.65,47.84626,-54.09684
2019-11-30 11:19:01+00:00,319.3647,5.4,12.65,47.84626,-54.09684
2019-11-30 11:29:01+00:00,324.298,5.3,12.65,47.84626,-54.09684
2019-11-30 11:39:01+00:00,337.0363,5.3,12.65,47.84626,-54.09684
2019-11-30 11:49:01+00:00,349.0513,5.28,12.65,47.84626,-54.09684
2019-11-30 11:59:01+00:00,352.8529,5.3,12.65,47.84626,-54.09684
2019-11-30 12:09:01+00:00,360.9963,5.3,12.65,47.84626,-54.09684
2019-11-30 12:19:01+00:00,374.1179,5.41,12.65,47.84626,-54.09684
2019-11-30 12:29:01+00:00,381.4996,5.56,12.65,47.84626,-54.09684
2019-11-30 12:39:01+00:00,380.1446,5.57,12.65,47.84626,-54.09684
2019-11-30 12:49:01+00:00,383.6713,5.5,12.65,47.84626,-54.09684
2019-11-30 12:59:01+00:00,392.0829,5.5,12.65,47.84626,-54.09684
2019-11-30 13:09:01+00:00,394.9613,5.5,12.65,47.84626,-54.09684
2019-11-30 13:19:01+00:00,396.0479,5.49,12.65,47.84626,-54.09684
2019-11-30 13:29:01+00:00,402.1496,5.49,12.65,47.84626,-54.09684
2019-11-30 13:39:01+00:00,407.0912,5.48,12.65,47.84626,-54.09684
2019-11-30 13:49:01+00:00,404.3595,5.44,12.65,47.84626,-54.09684
2019-11-30 13:59:01+00:00,408.7979,5.4,12.65,47.84626,-54.09684
2019-11-30 14:09:01+00:00,416.0045,5.4,12.65,47.84626,-54.09684
2019-11-30 14:19:01+00:00,412.8063,5.4,12.65,47.84626,-54.09684
2019-11-30 14:29:01+00:00,409.0114,5.4,12.65,47.84626,-54.09684
2019-11-30 14:39:01+00:00,412.2746,5.4,12.65,47.84626,-54.09684
2019-11-30 14:49:01+00:00,411.3796,5.4,12.65,47.84626,-54.09684
2019-11-30 14:59:01+00:00,406.0595,5.39,12.65,47.84626,-54.09684
2019-11-30 15:09:01+00:00,406.4597,5.35,12.65,47.84626,-54.09684
2019-11-30 15:19:01+00:00,408.1595,5.37,12.65,47.84626,-54.09684
2019-11-30 15:29:01+00:00,402.5162,5.4,12.65,47.84626,-54.09684
2019-11-30 15:39:01+00:00,396.8395,5.35,12.65,47.84626,-54.09684
2019-11-30 15:49:01+00:00,396.5713,5.2,12.65,47.84626,-54.09684
2019-11-30 15:59:01+00:00,389.3813,5.3,12.65,47.84626,-54.09684
2019-11-30 16:09:01+00:00,381.9362,5.4,12.65,47.84626,-54.09684
2019-11-30 16:19:01+00:00,381.1462,5.4,12.65,47.84626,-54.09684
2019-11-30 16:29:01+00:00,371.7313,5.4,12.65,47.84626,-54.09684
2019-11-30 16:39:01+00:00,358.8779,5.43,12.65,47.84626,-54.09684
2019-11-30 16:49:01+00:00,351.6563,5.46,12.65,47.84626,-54.09684
2019-11-30 16:59:01+00:00,345.7529,5.43,12.65,47.84626,-54.09684
2019-11-30 17:09:01+00:00,332.7296,5.45,12.65,47.84626,-54.09684
2019-11-30 17:19:01+00:00,322.5098,5.46,12.65,47.84626,-54.09684
2019-11-30 17:29:01+00:00,317.368,5.43,12.65,47.84626,-54.09684
2019-11-30 17:39:01+00:00,306.7747,5.4,12.65,47.84626,-54.09684
2019-11-30 17:49:01+00:00,294.373,5.4,12.65,47.84626,-54.09684
2019-11-30 17:59:01+00:00,288.7631,5.4,12.65,47.84626,-54.09684
2019-11-30 18:09:01+00:00,282.5797,5.4,12.65,47.84626,-54.09684
2019-11-30 18:19:01+00:00,272.3031,5.4,12.65,47.84626,-54.09684
2019-11-30 18:29:01+00:00,265.4314,5.4,12.65,47.84626,-54.09684
2019-11-30 18:39:01+00:00,262.1264,5.4,12.65,47.84626,-54.09684
2019-11-30 18:49:01+00:00,254.2698,5.4,12.65,47.84626,-54.09684
2019-11-30 18:59:01+00:00,242.5231,5.4,12.65,47.84626,-54.09684
2019-11-30 19:09:01+00:00,237.6014,5.4,12.65,47.84626,-54.09684
2019-11-30 19:19:01+00:00,237.7431,5.4,12.65,47.84626,-54.09684
2019-11-30 19:29:01+00:00,234.8581,5.4,12.65,47.84626,-54.09684
2019-11-30 19:39:01+00:00,231.2581,5.4,12.65,47.84626,-54.09684
2019-11-30 19:49:01+00:00,232.7981,5.4,12.65,47.84626,-54.09684
2019-11-30 19:59:01+00:00,232.2031,5.4,12.65,47.84626,-54.09684
2019-11-30 20:09:01+00:00,230.1314,5.4,12.65,47.84626,-54.09684
2019-11-30 20:19:01+00:00,234.1697,5.4,12.57,47.84626,-54.09684
2019-11-30 20:29:01+00:00,240.9948,5.4,12.57,47.84626,-54.09684
2019-11-30 20:39:01+00:00,241.97799999999998,5.38,12.57,47.84626,-54.09684
2019-11-30 20:49:01+00:00,240.2264,5.38,12.57,47.84626,-54.09684
2019-11-30 20:59:01+00:00,243.9231,5.35,12.57,47.84626,-54.09684
2019-11-30 21:09:01+00:00,248.9864,5.3,12.57,47.84626,-54.09684
2019-11-30 21:19:01+00:00,250.5048,5.3,12.57,47.84626,-54.09684
2019-11-30 21:29:01+00:00,254.2014,5.3,12.57,47.84626,-54.09684
2019-11-30 21:39:01+00:00,261.6564,5.3,12.57,47.84626,-54.09684
2019-11-30 21:49:01+00:00,265.6781,5.32,12.57,47.84626,-54.09684
2019-11-30 21:59:01+00:00,266.9047,5.3,12.57,47.84626,-54.09684
2019-11-30 22:09:01+00:00,269.2098,5.3,12.57,47.84626,-54.09684
2019-11-30 22:19:01+00:00,272.5198,5.3,12.57,47.84626,-54.09684
2019-11-30 22:29:01+00:00,271.6964,5.3,12.57,47.84626,-54.09684
2019-11-30 22:39:01+00:00,273.6663,5.28,12.57,47.84626,-54.09684
2019-11-30 22:49:01+00:00,277.2381,5.2,12.57,47.84626,-54.09684
2019-11-30 22:59:01+00:00,281.3264,5.2,12.57,47.84626,-54.09684
2019-11-30 23:09:01+00:00,281.1346,5.2,12.57,47.84626,-54.09684
2019-11-30 23:19:01+00:00,283.5547,5.26,12.57,47.84626,-54.09684
2019-11-30 23:29:01+00:00,289.5164,5.28,12.57,47.84626,-54.09684
2019-11-30 23:39:01+00:00,296.1247,5.28,12.57,47.84626,-54.09684
2019-11-30 23:49:01+00:00,297.9498,5.3,12.57,47.84626,-54.09684
2019-11-30 23:59:01+00:00,301.1397,5.3,12.57,47.84626,-54.09684
